Location: Clair
(33.8067°N, 117.9845°W)
Time: 07:38:27
(UTC+00:00)

Cosmos 1782 Rocket - Pass Details

Date: 14 February 2026
Orbit: 600 x 625 km, 82.5° (Epoch: 12 March)

Event Time Altitude Azimuth Distance (km) Brightness Sun altitude
Rises 13:42:24 0° 196° (SSW) 2,871 6.9 -12.0°
Reaches altitude 10° 13:44:39 10° 201° (SSW) 1,973 6.0 -11.5°
Maximum altitude 13:48:55 52° 278° (W) 769 3.7 -10.6°
Drops below altitude 10° 13:53:15 10° 356° (N) 1,998 6.0 -9.8°
Sets 13:55:33 0° 1° (N) 2,910 6.9 -9.3°
